[Iaude] MPEC A120: 2024 AY2 [a=1.88,e=0.47,i=8.5,H=26.9]
    mpec at marsden.cfa.harvard.edu 
    mpec at marsden.cfa.harvard.edu
       
    Wed Jan 10 21:32:08 EST 2024
    
    
  
M.P.E.C. 2024-A120                             Issued 2024 January 11, 02:30 UT
     The Minor Planet Electronic Circulars contain information on unusual
         minor planets, routine data on comets and natural satellites,
         and occasional editorial announcements.  They are published
    on behalf of Division F of the International Astronomical Union by the
          Minor Planet Center, Smithsonian Astrophysical Observatory,
                          Cambridge, MA 02138, U.S.A.
			  
             Prepared using the Tamkin Foundation Computer Network
                              MPC at CFA.HARVARD.EDU
            URL https://www.minorplanetcenter.net/    ISSN 1523-6714
                                    2024 AY2                                    
Observations:
     K24A02Y*1C2024 01 10.41812409 28 14.560+16 16 27.80         19.45GVEA120G96
     K24A02Y 1C2024 01 10.42333609 28 22.600+16 13 04.60         18.98GVEA120G96
     K24A02Y 1C2024 01 10.42853209 28 30.840+16 09 40.20         19.14GVEA120G96
     K24A02Y 1C2024 01 10.43372709 28 38.900+16 06 16.70               VEA120G96
     K24A02Y 1C2024 01 10.48073109 29 52.516+15 35 25.76         19.50GVEA120G96
     K24A02Y 1C2024 01 10.48085709 29 52.696+15 35 20.29         19.48GVEA120G96
     K24A02Y 1C2024 01 10.48098409 29 52.876+15 35 15.29         19.15GVEA120G96
     K24A02Y 1C2024 01 10.48111009 29 53.070+15 35 10.57         19.37GVEA120G96
     K24A02Y KC2024 01 10.93000709 42 52.774+10 36 02.05         20.7 GVEA120J95
     K24A02Y KC2024 01 10.93443109 42 59.803+10 33 06.84         19.7 GVEA120J95
     K24A02Y 1C2024 01 10.95755 09 43 33.92 +10 17 58.2          20.1 VXEA120033
     K24A02Y 1C2024 01 10.95778 09 43 34.33 +10 17 48.5          19.9 VXEA120033
     K24A02Y 1C2024 01 10.95804 09 43 34.69 +10 17 39.3          20.3 VXEA120033
     K24A02Y 1C2024 01 10.95912 09 43 36.32 +10 16 56.3          20.3 VXEA120033
     K24A02Y 1C2024 01 10.95954 09 43 36.96 +10 16 39.9          20.1 VXEA120033
     K24A02Y 1C2024 01 10.96147 09 43 40.03 +10 15 22.7          20.1 VXEA120033
     K24A02Y 1C2024 01 10.96195 09 43 40.77 +10 15 03.7          20.2 VXEA120033
     K24A02Y 1C2024 01 10.96235 09 43 41.38 +10 14 48.1          20.3 VXEA120033
     K24A02Y KC2024 01 11.05594609 46 05.04 +09 13 04.4          19.9 GVEA120L01
     K24A02Y KC2024 01 11.05707809 46 06.76 +09 12 19.2          19.9 GVEA120L01
     K24A02Y KC2024 01 11.05821109 46 08.50 +09 11 33.8          20.3 GVEA120L01
     K24A02Y KC2024 01 11.05934309 46 10.21 +09 10 48.4          19.8 GVEA120L01
     K24A02Y KC2024 01 11.06047609 46 11.92 +09 10 03.1          19.9 GVEA120L01
Observer details:
033 Karl Schwarzschild Observatory, Tautenburg.  Observers S. Melnikov, C.
    Hogner, F. Ludwig, M. Hartmann, B. Stecklum.  Measurer B. Stecklum.
    1.34-m f/3 Schmidt + CCD.
G96 Mt. Lemmon Survey.  Observer J. K. Hogan.  Measurers T. Beuden, V. F.
    Carvajal, D. Fay, J. B. Fazekas, D. C. Fuls, A. R. Gibbs, A. D. Grauer, H.
    Groeller, J. K. Hogan, R. A. Kowalski, S. M. Larson, G. J. Leonard, D.
    Rankin, R. L. Seaman, F. C. Shelly, K. W. Wierzchos.  1.5-m reflector +
    10K CCD.
J95 Great Shefford.  Observer P. Birtwhistle.  0.41-m f/6.3 Schmidt-Cassegrain
    + CCD.
L01 Visnjan Observatory, Tican.  Observers K. Korlevic, L. Poropat.  Measurer
    K. Korlevic.  1.0-m f/2.9 reflector + CCD.
Orbital elements:
2024 AY2                                                 Earth MOID = 0.0145 AU
Epoch 2023 Sept. 13.0 TT = JDT 2460200.5                Veres                   
M 308.64215              (2000.0)            P               Q                  
n   0.38338664     Peri.  197.36595     -0.60544051     -0.78367943             
a   1.8766275      Node   290.11684     +0.74665140     -0.49884475             
e   0.4739701      Incl.    8.50558     +0.27559658     -0.37013575             
P   2.57           H   26.95          G   0.15           U   8                  
Residuals in seconds of arc
240110 G96  0.2+  0.3-    240110 J95  0.4+  0.3-    240110 033  0.3-  0.4+
240110 G96  1.2-  0.6+    240110 J95  0.2-  0.1+    240110 033  0.5-  0.7+
240110 G96  0.7+  0.2-    240110 033  0.0   0.2-    240111 L01  0.3-  0.0
240110 G96  0.0   0.1+    240110 033  0.7+  0.7-    240111 L01  0.2-  0.1+
240110 G96  0.4+  0.3+    240110 033  0.0   0.4+    240111 L01  0.2+  0.0
240110 G96  0.2+  0.3-    240110 033  0.8-  0.4+    240111 L01  0.2+  0.1-
240110 G96  0.1-  0.2-    240110 033  1.0-  0.7+    240111 L01  0.1+  0.1-
240110 G96  0.2-  0.0     240110 033  0.2-  0.3+
Ephemeris:
2024 AY2                 a,e,i = 1.88, 0.47, 9                   q = 0.9872
Date    TT    R. A. (2000) Decl.     Delta      r    Elong.  Phase     V
2023 12 12    04 02 05.9 +56 20 39   0.1527  1.1121   144.2    31.2    24.4
...
2023 12 27    04 47 15.7 +57 58 29   0.07666 1.0446   141.6    35.8    22.9
...
2024 01 04    06 31 30.0 +53 25 23   0.04013 1.0179   149.1    29.8    21.3
...
2024 01 10    09 16 13.7 +20 45 25   0.02185 1.0030   153.4    26.1    19.8
2024 01 11    09 44 31.1 +09 54 53   0.02135 1.0010   144.7    34.6    20.0
2024 01 12    10 10 45.5 -01 00 25   0.02194 0.9991   134.7    44.4    20.4
...
2024 01 18    11 57 51.2 -37 53 31   0.04006 0.9905    98.5    79.2    22.7
...
2024 01 26    12 58 58.8 -48 57 40   0.07465 0.9869    89.7    85.9    24.3
...
2024 02 10    13 40 54.3 -53 40 26   0.1392  1.0048    93.5    78.6    25.4
M. P. C. Staff               (C) Copyright 2024 MPC           M.P.E.C. 2024-A120
    
    
More information about the Iaude
mailing list